Weather History for La Crosse, WI

Change the Weather History Date:

Thursday, August 14, 2014

  Actual Average Record
Temperature  
Mean Temperature 65 °F 72 °F  
Max Temperature 79 °F 82 °F 95 °F (1978)
Min Temperature 51 °F 62 °F 43 °F (1964)
Degree Days  
Heating Degree Days 0 0  
Month to date heating degree days 0 0  
Since 1 July heating degree days 3 5  
Cooling Degree Days 0 7  
Month to date cooling degree days 101 109  
Year to date cooling degree days 580 596  
Growing Degree Days 16 (Base 50)    
Moisture  
Dew Point 51 °F    
Average Humidity 58    
Maximum Humidity 84    
Minimum Humidity 32    
Precipitation  
Precipitation 0.00 in 0.15 in 2.98 in (1909)
Month to date precipitation 0.68 2.01  
Year to date precipitation 25.54 21.68  
Snow  
Snow 0.00 in 0.00 in 0.00 in (2002)
Month to date snowfall 0.0 0.0  
Since 1 July snowfall 0.0 0.0  
Snow Depth 0.00 in    
Sea Level Pressure  
Sea Level Pressure 30.08 in    
Wind  
Wind Speed 4 mph (East)    
Max Wind Speed 10 mph    
Max Gust Speed 16 mph    
Visibility 10 miles    
Events      
T = Trace of Precipitation, MM = Missing Value Source: NWS Daily Summary

Daily Weather History Graph

Daily Weather History Graph

Search for Another Location

Airport:

Trip Planner

Search our weather history database for the weather conditions in past years. The results will help you decide how hot, cold, wet, or windy it might be!

Date:

Astronomy

Aug. 14, 2014 Rise Set
Actual Time 6:08 AM CDT 8:10 PM CDT
Civil Twilight 5:36 AM CDT 8:41 PM CDT
Nautical Twilight 4:58 AM CDT 9:20 PM CDT
Astronomical Twilight 4:15 AM CDT 10:02 PM CDT
Moon 10:21 PM CDT (8/14) 10:56 AM CDT (8/14)
Length of Visible Light 15h 05m
Length of Day
14h 02m
Waning Gibbous, 79% of the Moon is Illuminated
Aug 14
Waning Gibbous
Aug 17
Last Quarter
Aug 25
New
Sep 2
First Quarter
Sep 8
Full

Hourly Weather History & Observations

Time (CDT) Temp. Dew Point Humidity Pressure Visibility Wind Dir Wind Speed Gust Speed Precip Events Conditions
12:53 AM 63.0 °F 51.1 °F 65% 30.08 in 10.0 mi Calm Calm - N/A   Clear
1:53 AM 60.1 °F 50.0 °F 69% 30.09 in 10.0 mi Calm Calm - N/A   Clear
2:53 AM 57.0 °F 50.0 °F 77% 30.09 in 10.0 mi Calm Calm - N/A   Clear
3:53 AM 57.0 °F 48.9 °F 74% 30.10 in 10.0 mi Calm Calm - N/A   Clear
4:53 AM 53.1 °F 48.0 °F 83% 30.11 in 10.0 mi Calm Calm - N/A   Clear
5:53 AM 53.1 °F 48.0 °F 83% 30.12 in 10.0 mi SE 3.5 mph - N/A   Clear
6:53 AM 55.0 °F 50.0 °F 83% 30.14 in 10.0 mi Calm Calm - N/A   Clear
7:53 AM 59.0 °F 51.1 °F 75% 30.14 in 10.0 mi ESE 3.5 mph - N/A   Clear
8:53 AM 62.1 °F 52.0 °F 70% 30.15 in 10.0 mi Variable 3.5 mph - N/A   Clear
9:53 AM 64.9 °F 53.1 °F 65% 30.15 in 10.0 mi ESE 3.5 mph - N/A   Clear
10:53 AM 69.1 °F 53.1 °F 57% 30.14 in 10.0 mi Variable 4.6 mph - N/A   Clear
11:53 AM 72.0 °F 48.9 °F 44% 30.12 in 10.0 mi Variable 3.5 mph - N/A   Clear
12:53 PM 73.9 °F 53.1 °F 48% 30.11 in 10.0 mi Calm Calm - N/A   Clear
1:53 PM 77.0 °F 52.0 °F 42% 30.09 in 10.0 mi Variable 3.5 mph - N/A   Clear
2:53 PM 77.0 °F 51.1 °F 40% 30.08 in 10.0 mi Variable 5.8 mph - N/A   Clear
3:53 PM 79.0 °F 46.9 °F 32% 30.06 in 10.0 mi NNW 5.8 mph - N/A   Clear
4:53 PM 78.1 °F 48.0 °F 35% 30.05 in 10.0 mi WNW 8.1 mph - N/A   Clear
5:53 PM 77.0 °F 51.1 °F 40% 30.04 in 10.0 mi West 5.8 mph - N/A   Clear
6:53 PM 75.9 °F 51.1 °F 42% 30.02 in 10.0 mi Calm Calm - N/A   Clear
7:53 PM 72.0 °F 52.0 °F 49% 30.02 in 10.0 mi East 3.5 mph - N/A   Clear
8:53 PM 68.0 °F 55.0 °F 63% 30.02 in 10.0 mi East 4.6 mph - N/A   Clear
9:53 PM 64.9 °F 55.0 °F 70% 30.02 in 10.0 mi East 5.8 mph - N/A   Clear
10:53 PM 62.1 °F 54.0 °F 75% 30.03 in 10.0 mi East 9.2 mph - N/A   Clear
11:53 PM 61.0 °F 55.0 °F 81% 30.03 in 10.0 mi ESE 6.9 mph - N/A   Clear